Location: Home
(42.5358°N, 72.7383°W)
Time: 05:51:38
(UTC-05:00)

A-11 Canister half - Pass Details

Date: 30 November 2021
Orbit: 1524 x 1684 km, 47.3° (Epoch: 17 January)

Event Time Altitude Azimuth Distance (km) Brightness Sun altitude
Exits shadow 01:41:56 23° 76° (ENE) 3,011 10.7 -57.1°
Drops below altitude 10° 01:45:08 10° 68° (ENE) 3,905 11.5 -56.6°
Sets 01:48:21 0° 64° (ENE) 4,877 12.2 -56.0°
